[[{"header":{"parameterUnit":"m.s-1","parameterCategory":1,"la1":30.2991,"la2":30.254,"lo1":-89.0895,"lo2":-89.0444,"dy":0.0017,"dx":0.0017,"nx":28,"ny":28,"refTime":"2023-10-13T21:00:00:Z","depth":0,"parameterNumber":2,"parameterNumberName":"U-component_of_WINDS"},"data":[0,0,0,0,0,0,0,0,0,0,0,0,0,0,0,0,0,0,0,0,0,0,0,0,0,0,0,0,0,0,0,0,0,0,0,0,0,0,0,0,0,0,0,0,0,0,0,0,0,0,0,0,0,0,0,0,0,0,2.9766,2.9767,0,2.9817,2.9817,2.9818,2.9838,2.9838,2.9838,2.9837,2.9891,2.9893,2.9894,0,0,0,0,0,0,0,0,0,0,0,0,0,2.9693,2.9694,2.9766,2.9767,2.9768,2.9817,2.9817,2.9818,2.9838,2.9838,2.9838,2.9837,2.9891,2.9893,2.9894,0,0,0,0,0,0,0,0,0,0,0,0,0,2.9732,2.9695,2.9766,2.9783,2.9785,2.9817,2.9817,2.9818,2.9838,2.9838,2.9837,2.9837,2.989,2.9892,2.9895,2.9913,0,0,2.9902,2.9903,0,0,0,0,0,0,0,0,2.973,2.9735,2.978,2.9782,2.9785,2.9821,2.9811,2.985,2.9838,2.9818,2.9837,2.9837,2.9868,2.9872,2.9882,2.9916,2.9918,2.9902,2.9903,2.9904,2.9905,0,0,0,0,0,0,0,2.9727,2.9733,2.9786,2.9781,2.9784,2.9791,2.9796,2.9819,2.9844,2.982,2.9821,2.9827,2.9869,2.988,2.9884,2.9919,2.9902,2.9904,2.9905,2.9906,2.9977,2.9978,0,0,0,0,0,0,2.9721,2.9731,2.9785,2.9788,2.9756,2.9792,2.9798,2.9809,2.9843,2.9848,2.9827,2.9828,2.9876,2.9881,2.9886,2.9914,2.9904,2.9907,2.9908,2.9977,2.9977,2.9978,0,0,0,0,0,0,2.972,2.9726,2.9783,2.976,2.9768,2.9793,2.9806,2.981,2.9821,2.9849,2.9854,2.9833,2.9876,2.9882,2.9908,2.9916,2.9908,2.991,2.9976,2.9977,2.9977,2.9967,0,0,0,0,0,0,2.9717,2.9725,2.9731,2.976,2.9769,2.9802,2.9807,2.9812,2.9825,2.9826,2.9856,2.9861,2.9876,2.9904,2.991,2.9919,2.9912,2.9975,2.9976,2.9977,2.9967,2.9968,2.9968,0,0,0,0,0,2.9715,2.9725,2.9731,2.9737,2.9776,2.9802,2.9807,2.9825,2.9825,2.9833,2.9852,2.986,2.9914,2.9906,2.9913,2.9923,2.9975,2.9976,2.9977,2.9967,2.9967,2.9968,0,0,0,0,0,0,2.9695,2.9729,2.9736,2.9755,2.9776,2.9805,2.9814,2.9824,2.9845,2.9846,2.9867,2.9874,2.9898,2.9913,2.9904,2.9946,2.9945,2.9948,2.9935,2.9936,2.9936,2.9933,2.9914,0,0,0,0,0,2.9693,2.9711,2.9739,2.9754,2.9764,2.9788,2.98,2.9812,2.9834,2.9843,2.9863,2.9886,2.9909,2.9923,2.9945,2.997,2.9979,2.998,2.9981,2.9981,2.9983,3.0003,3.0005,2.9981,2.9981,2.9981,0,0,2.9689,2.971,2.9719,2.9751,2.9768,2.9788,2.9795,2.9814,2.983,2.9846,2.9872,2.9888,2.9916,2.9942,2.9954,2.9955,2.9992,2.9982,2.9982,2.9984,3.0004,3.0006,3.0008,2.9982,2.9982,2.9982,0,0,2.9693,2.9708,2.9725,2.9743,2.977,2.9786,2.979,2.982,2.9831,2.9858,2.9872,2.9892,2.9929,2.995,2.9965,2.9982,2.9993,2.9989,2.9992,3.0011,3.0013,3.0014,3.0024,3.0027,2.9991,2.9991,2.9991,0,2.9684,2.9713,2.9732,2.9752,2.9767,2.9784,2.9803,2.982,2.9853,2.9864,2.9864,2.9916,2.9934,2.9968,2.9973,2.9984,2.9992,2.9986,3.001,3.0013,3.0015,3.0025,3.0028,2.9991,2.9991,2.9991,2.9991,0,2.9704,2.9724,2.9734,2.9767,2.9783,2.9802,2.9827,2.9842,2.9854,2.9872,2.9902,2.9926,2.9956,2.9965,2.9975,3.0002,3.0002,3.0006,3.0006,3.0016,3.0026,3.003,2.999,2.999,2.999,2.999,0,0,2.9693,2.9739,2.9743,2.976,2.9793,2.981,2.9833,2.9862,2.9877,2.99,2.9922,2.9956,2.9962,2.9979,2.9993,3.001,3.0028,3.0013,3.0014,3.0017,3.0063,3.0062,3.0065,3.0035,3.0035,3.0036,3.0062,0,2.9703,2.9741,2.9762,2.9793,2.9815,2.9834,2.9854,2.9879,2.9897,2.992,2.9941,2.9966,2.997,2.9982,2.9998,3.0021,3.0037,3.002,3.0058,3.0059,3.0052,3.007,3.0066,3.009,3.0066,3.0067,3.0067,0,2.9718,2.9743,2.9776,2.9812,2.9822,2.9839,2.9871,2.9892,2.9922,2.9935,2.9957,2.9972,3.0001,2.9999,3.0041,3.0028,3.0046,3.006,3.0062,3.0067,3.0064,3.0078,3.0097,3.0102,3.0072,3.0072,3.0072,0,2.9711,2.9752,2.9779,2.9793,2.9834,2.9847,2.9866,2.9895,2.9914,2.9942,2.9955,2.9987,3.0004,3.003,3.0055,3.0051,3.0096,3.0095,3.011,3.011,3.0119,3.0118,3.0144,3.0127,3.0127,3.0127,3.0127,0,2.972,2.974,2.9777,2.9794,2.982,2.9844,2.987,2.989,2.9918,2.9941,2.996,2.9982,3.0013,3.004,3.006,3.0095,3.0102,3.0115,3.0121,3.0115,3.0113,3.0127,3.0127,3.0128,3.0127,3.0127,3.0127,0,2.9715,2.974,2.9771,2.981,2.982,2.9838,2.9872,2.9891,2.9912,2.9942,2.9951,2.9985,3.0019,3.0046,3.009,3.0104,3.0141,3.0146,3.013,3.0134,3.0149,3.0148,3.0185,3.0193,3.0169,3.0169,3.0169,0,2.9719,2.9736,2.9778,2.9795,2.9813,2.984,2.9859,2.9886,2.9907,2.9946,2.9962,2.9997,3.0026,3.0081,3.0111,3.0146,3.0153,3.0164,3.0159,3.0154,3.0158,3.0157,3.0161,3.0165,3.0165,3.0165,3.0165,0,2.9726,2.9739,2.9766,2.9799,2.9822,2.985,2.9877,2.9891,2.9924,2.9947,2.9982,3.0005,3.0052,3.0089,3.0128,3.015,3.0165,3.0167,3.0173,3.0168,3.016,3.0168,3.0135,3.0166,3.0166,3.0166,3.0166,3.0166,2.9728,2.9746,2.9779,2.981,2.9835,2.9862,2.9883,2.9909,2.9938,2.9978,2.9993,3.003,3.0067,3.0121,3.0144,3.0176,3.0178,3.0185,3.0188,3.019,3.0191,3.0154,3.0183,3.0183,3.0183,3.0183,3.0183,0,2.9738,2.9762,2.979,2.983,2.9856,2.9867,2.9901,2.9922,2.9954,2.9986,3.0016,3.006,3.0097,3.0132,3.0172,3.0192,3.02,3.0201,3.0201,3.0207,3.0185,3.0178,3.0195,3.0195,3.0195,3.0195,3.0195,3.0195,2.9747,2.9779,2.9797,2.9844,2.9868,2.9904,2.9923,2.995,2.9976,3.0024,3.0055,3.0077,3.0113,3.0156,3.0193,3.0203,3.0218,3.0218,3.023,3.0209,3.0208,3.0206,3.0199,3.0221,3.0221,3.025,3.025,3.025]},{"header":{"parameterUnit":"m.s-1","parameterCategory":1,"la1":30.2991,"la2":30.254,"lo1":-89.0895,"lo2":-89.0444,"dy":0.0017,"dx":0.0017,"nx":28,"ny":28,"refTime":"2023-10-13T21:00:00:Z","depth":0,"parameterNumber":3,"parameterNumberName":"V-component_of_WINDS"},"data":[0,0,0,0,0,0,0,0,0,0,0,0,0,0,0,0,0,0,0,0,0,0,0,0,0,0,0,0,0,0,0,0,0,0,0,0,0,0,0,0,0,0,0,0,0,0,0,0,0,0,0,0,0,0,0,0,0,0,-1.3708,-1.3708,0,-1.3703,-1.3703,-1.3703,-1.3713,-1.3714,-1.3714,-1.3714,-1.3705,-1.3704,-1.3704,0,0,0,0,0,0,0,0,0,0,0,0,0,-1.3725,-1.3724,-1.3708,-1.3708,-1.3708,-1.3703,-1.3703,-1.3703,-1.3713,-1.3714,-1.3714,-1.3715,-1.3705,-1.3704,-1.3704,0,0,0,0,0,0,0,0,0,0,0,0,0,-1.3718,-1.3724,-1.3708,-1.3713,-1.3713,-1.3703,-1.3703,-1.3703,-1.3713,-1.3714,-1.3714,-1.3715,-1.3705,-1.3705,-1.3704,-1.3688,0,0,-1.3701,-1.3701,0,0,0,0,0,0,0,0,-1.3718,-1.3717,-1.3712,-1.3712,-1.3713,-1.3709,-1.3705,-1.3698,-1.3713,-1.3713,-1.3714,-1.3715,-1.3706,-1.3705,-1.3703,-1.3687,-1.3687,-1.3701,-1.37,-1.37,-1.37,0,0,0,0,0,0,0,-1.3719,-1.3718,-1.3706,-1.3712,-1.3712,-1.3714,-1.3714,-1.3704,-1.3706,-1.3713,-1.3714,-1.3713,-1.3706,-1.3703,-1.3702,-1.3687,-1.3701,-1.37,-1.37,-1.3699,-1.366,-1.366,0,0,0,0,0,0,-1.3719,-1.3718,-1.3706,-1.3706,-1.3717,-1.3714,-1.3713,-1.371,-1.3706,-1.3707,-1.3713,-1.3714,-1.3705,-1.3703,-1.3702,-1.3685,-1.37,-1.3699,-1.3699,-1.3661,-1.366,-1.3659,0,0,0,0,0,0,-1.372,-1.3718,-1.3706,-1.3712,-1.3711,-1.3713,-1.3709,-1.3709,-1.3707,-1.3706,-1.3707,-1.371,-1.3705,-1.3703,-1.3692,-1.3684,-1.3699,-1.3698,-1.3661,-1.366,-1.366,-1.3649,0,0,0,0,0,0,-1.372,-1.3718,-1.3712,-1.3712,-1.3711,-1.3697,-1.3708,-1.3709,-1.3706,-1.3707,-1.3704,-1.3704,-1.3705,-1.3693,-1.3691,-1.3684,-1.3697,-1.3662,-1.3661,-1.366,-1.365,-1.3648,-1.3646,0,0,0,0,0,-1.3721,-1.3708,-1.3712,-1.371,-1.3704,-1.3696,-1.3695,-1.3699,-1.3705,-1.3699,-1.3699,-1.3704,-1.3686,-1.3692,-1.369,-1.3682,-1.3662,-1.3661,-1.366,-1.3651,-1.3648,-1.3646,0,0,0,0,0,0,-1.3705,-1.3708,-1.3712,-1.37,-1.3698,-1.3698,-1.3691,-1.3696,-1.3691,-1.3692,-1.3695,-1.3694,-1.3683,-1.3681,-1.3688,-1.3667,-1.3675,-1.3673,-1.3669,-1.3666,-1.3664,-1.3665,-1.3697,0,0,0,0,0,-1.3701,-1.3696,-1.3698,-1.3686,-1.3686,-1.3688,-1.3685,-1.3689,-1.3686,-1.3685,-1.3684,-1.3681,-1.3675,-1.367,-1.3664,-1.365,-1.365,-1.3643,-1.3641,-1.364,-1.3638,-1.3632,-1.3629,-1.3656,-1.3656,-1.3656,0,0,-1.3691,-1.3692,-1.3688,-1.3684,-1.3683,-1.3677,-1.3687,-1.368,-1.3676,-1.3683,-1.3673,-1.3673,-1.3669,-1.3657,-1.3651,-1.3655,-1.3631,-1.3638,-1.3637,-1.3636,-1.363,-1.3628,-1.3626,-1.3655,-1.3655,-1.3655,0,0,-1.367,-1.367,-1.3661,-1.3661,-1.366,-1.3663,-1.3661,-1.3661,-1.3661,-1.3652,-1.3658,-1.3652,-1.3641,-1.3639,-1.3636,-1.3618,-1.3622,-1.3615,-1.3605,-1.3599,-1.3597,-1.3595,-1.359,-1.3587,-1.3614,-1.3614,-1.3614,0,-1.3657,-1.365,-1.3656,-1.3649,-1.3648,-1.3656,-1.3648,-1.3646,-1.3643,-1.3641,-1.3646,-1.3634,-1.3632,-1.3621,-1.3616,-1.3614,-1.3612,-1.3616,-1.3597,-1.3595,-1.3594,-1.3588,-1.3586,-1.3613,-1.3613,-1.3613,-1.3613,0,-1.3635,-1.363,-1.3623,-1.3622,-1.362,-1.3612,-1.3616,-1.3613,-1.3617,-1.3619,-1.3609,-1.3608,-1.3603,-1.36,-1.3603,-1.3589,-1.3592,-1.3597,-1.3605,-1.3591,-1.3586,-1.3584,-1.3612,-1.3612,-1.3613,-1.3613,0,0,-1.3603,-1.3608,-1.3605,-1.3606,-1.3607,-1.3602,-1.3595,-1.3592,-1.359,-1.3588,-1.3582,-1.3574,-1.358,-1.3577,-1.3579,-1.3574,-1.3561,-1.358,-1.358,-1.3577,-1.3547,-1.3544,-1.3542,-1.3564,-1.3564,-1.3563,-1.3548,0,-1.3584,-1.3573,-1.358,-1.3568,-1.3564,-1.3573,-1.3567,-1.3567,-1.3569,-1.3565,-1.3567,-1.3562,-1.3569,-1.3568,-1.3563,-1.3564,-1.3555,-1.3565,-1.3559,-1.3559,-1.356,-1.3539,-1.3535,-1.352,-1.3546,-1.3546,-1.3545,0,-1.3559,-1.3559,-1.3547,-1.3551,-1.355,-1.3544,-1.3543,-1.354,-1.354,-1.3542,-1.354,-1.3545,-1.3538,-1.3547,-1.3538,-1.3544,-1.3542,-1.3543,-1.3542,-1.3542,-1.3551,-1.3538,-1.3515,-1.3514,-1.3542,-1.3542,-1.3543,0,-1.3538,-1.3535,-1.3528,-1.3528,-1.3532,-1.3528,-1.3529,-1.3531,-1.3529,-1.3528,-1.3527,-1.3524,-1.3522,-1.352,-1.3524,-1.3529,-1.3515,-1.3523,-1.3516,-1.3516,-1.3513,-1.3513,-1.349,-1.3511,-1.3511,-1.3511,-1.3511,0,-1.3516,-1.3509,-1.3519,-1.3515,-1.3508,-1.3515,-1.3507,-1.3509,-1.3511,-1.3507,-1.3514,-1.351,-1.3516,-1.3512,-1.3515,-1.3508,-1.3507,-1.3508,-1.3509,-1.3508,-1.3508,-1.3507,-1.3508,-1.351,-1.351,-1.351,-1.351,0,-1.3492,-1.3498,-1.3492,-1.3497,-1.3498,-1.3493,-1.3497,-1.3493,-1.3497,-1.3492,-1.3491,-1.3496,-1.3493,-1.3497,-1.3493,-1.3495,-1.3486,-1.3488,-1.3487,-1.3487,-1.3481,-1.3482,-1.3456,-1.3454,-1.3476,-1.3475,-1.3475,0,-1.3477,-1.3473,-1.3478,-1.3477,-1.3479,-1.3476,-1.3476,-1.3483,-1.3482,-1.3483,-1.3479,-1.3477,-1.3476,-1.347,-1.3473,-1.3471,-1.3473,-1.3464,-1.3473,-1.3472,-1.3474,-1.3475,-1.3475,-1.3463,-1.3462,-1.3462,-1.3462,0,-1.3452,-1.3456,-1.3455,-1.3456,-1.3455,-1.3456,-1.3457,-1.3455,-1.3463,-1.3462,-1.346,-1.3459,-1.3457,-1.3455,-1.3454,-1.3454,-1.3459,-1.346,-1.3458,-1.3457,-1.3457,-1.3458,-1.3483,-1.346,-1.346,-1.346,-1.346,-1.346,-1.3432,-1.3429,-1.3433,-1.3433,-1.3435,-1.3437,-1.3434,-1.3438,-1.3437,-1.3437,-1.3441,-1.3439,-1.344,-1.344,-1.344,-1.3438,-1.3442,-1.3439,-1.3438,-1.3438,-1.3437,-1.3457,-1.3438,-1.3438,-1.3438,-1.3438,-1.3438,0,-1.3408,-1.3412,-1.3411,-1.3414,-1.3414,-1.342,-1.3423,-1.3422,-1.342,-1.3422,-1.3421,-1.342,-1.3418,-1.3422,-1.3421,-1.3419,-1.3421,-1.3418,-1.3418,-1.3419,-1.3434,-1.3436,-1.3416,-1.3416,-1.3416,-1.3416,-1.3416,-1.3416,-1.3395,-1.3391,-1.3396,-1.3393,-1.3397,-1.3395,-1.3396,-1.3398,-1.34,-1.3398,-1.3398,-1.3401,-1.3404,-1.3403,-1.3403,-1.3404,-1.3403,-1.34,-1.3402,-1.3415,-1.3417,-1.3419,-1.3421,-1.3399,-1.3399,-1.3387,-1.3387,-1.3387]}]]